N2QDK-2 Weather Reports


Display with metric or nautical units.
time (UTC)temp
F
wind
direction
speed
MPH
gust
MPH
rain 1hr
in
rain 24hr
in
rain mn
in
humidity
%
barometer
mb
20171211015939 28 245 0.0 5.0 0.00 0.07 0.07 94 1011.3
20171211012938 28 247 0.0 9.0 0.00 0.07 0.07 94 1011.4
20171211005937 28 215 3.0 8.0 0.00 0.07 0.07 93 1011.3
20171211002937 28 257 2.0 6.0 0.00 0.07 0.07 94 1011.2
20171211000006 28 221 0.0 9.0 0.02 0.07 0.07 94 1011.1
20171210232935 28 253 2.0 5.0 0.02 0.07 0.07 94 1011.0
20171210225904 28 199 2.0 5.0 0.03 0.05 0.05 94 1011.0
20171210223003 28 240 0.0 6.0 0.03 0.05 0.05 94 1010.8
20171210220002 28 209 0.0 5.0 0.00 0.02 0.02 93 1010.4
20171210212931 28 229 0.0 6.0 0.00 0.02 0.02 93 1010.5
20171210210000 28 205 3.0 6.0 0.02 0.02 0.02 91 1010.2
20171210202959 28 207 2.0 9.0 0.02 0.02 0.02 90 1010.0
20171210195959 28 229 3.0 6.0 0.00 0.00 0.00 89 1009.7
20171210192959 29 224 2.0 9.0 0.00 0.00 0.00 88 1009.7
20171210185957 29 311 2.0 17.0 0.00 0.00 0.00 84 1009.8
20171210182956 30 267 5.0 18.0 0.00 0.00 0.00 75 1009.6
20171210175955 31 250 6.0 26.0 0.00 0.00 0.00 64 1009.6
20171210172954 32 268 14.0 24.0 0.00 0.00 0.00 61 1009.7
20171210165953 32 253 8.0 26.0 0.00 0.00 0.00 63 1010.0
20171210162952 31 268 11.0 26.0 0.00 0.00 0.00 60 1010.5
20171210155937 31 205 5.0 21.0 0.00 0.00 0.00 63 1010.5
20171210152951 30 265 5.0 24.0 0.00 0.00 0.00 65 1010.4
20171210145950 30 242 8.0 24.0 0.00 0.00 0.00 68 1010.2
20171210142949 30 209 6.0 21.0 0.00 0.00 0.00 77 1010.0
20171210135949 30 256 5.0 12.0 0.00 0.00 0.00 83 1009.9
20171210132947 30 244 5.0 18.0 0.00 0.00 0.00 86 1009.6
20171210125946 29 281 2.0 8.0 0.00 0.00 0.00 88 1009.1
20171210122945 30 262 0.0 12.0 0.00 0.00 0.00 90 1009.0
20171210115944 30 235 3.0 11.0 0.00 0.00 0.00 91 1008.6
20171210112943 30 244 2.0 9.0 0.00 0.00 0.00 91 1008.2
20171210105943 30 268 6.0 14.0 0.00 0.00 0.00 89 1007.9
20171210102942 30 238 3.0 12.0 0.00 0.00 0.00 87 1007.6
20171210095926 30 267 5.0 12.0 0.00 0.00 0.00 86 1007.2
20171210092940 30 168 3.0 11.0 0.00 0.00 0.00 86 1006.9
20171210085939 30 259 5.0 15.0 0.00 0.00 0.00 86 1006.9
20171210082938 30 244 2.0 9.0 0.00 0.00 0.00 84 1007.1
20171210075907 30 246 2.0 11.0 0.00 0.00 0.00 82 1006.9
20171210072936 30 215 3.0 11.0 0.00 0.00 0.00 80 1007.1
20171210065935 30 236 6.0 12.0 0.00 0.00 0.00 78 1006.9
20171210062935 30 230 3.0 9.0 0.00 0.00 0.00 75 1006.8
20171210055904 30 277 3.0 11.0 0.00 0.00 0.00 71 1006.7
20171210052933 30 239 3.0 6.0 0.00 0.00 0.00 70 1006.7
20171210050002 31 265 2.0 11.0 0.00 0.00 0.00 68 1007.1
20171210043001 31 306 2.0 6.0 0.00 0.00 0.00 64 1007.1
20171210040000 31 275 0.0 9.0 0.00 0.00 0.00 61 1007.1
20171210033001 31 296 0.0 5.0 0.00 0.00 0.00 58 1007.1
20171210025959 31 276 0.0 5.0 0.00 0.00 0.00 58 1007.0
20171210022958 31 286 0.0 5.0 0.00 0.00 0.00 56 1007.1